sat.trackr.live / text

‹ back to catalog

STARLINK-32261

NORAD 61530 · 2024-183X

PAYLOAD ACTIVE UNKNOWN

§ Identity

Operator
Country
US
Launch date
2024-10-15
Launch site
AFETR
Launch vehicle
Mass (kg)
RCS (m²)

Purposes: comms

External: N2YO · Heavens-Above · Gunter

§ Orbital elements

Epoch: 2026-05-24T23:36:02.509632Z

Period
94.01 min
Inclination
53.1601°
Eccentricity
0.0001171
Mean motion
15.31694385 rev/d
Perigee alt
470.0 km
Apogee alt
471.6 km
Semi-major
6,848.9 km
B*
3.7487e-5
RAAN
148.0563°
Arg perigee
91.5391°
Mean anomaly
268.5744°
Rev number
9,133

§ Raw data

STARLINK-322611 61530U 24183X   26144.98336238  .00000798  00000+0  37487-4 0  99982 61530  53.1601 148.0563 0001171  91.5391 268.5744 15.31694385 91335

JSON: /api/v1/satellites/61530 · /tle

For live sub-satellite position, see the globe view (requires WebGL).

§ Visibility from observer

Set your observer location to see the next 7 days of passes ≥ 10°. The values pass through the URL so the page stays shareable.

No JS? Fill the form by hand. The geolocation button needs JavaScript.